Temp
9 8 9 9 8 8 7 7 6 6 6 6 6 6 6 6 6 7 6 7 7 8
8 8 8 8 7 7 6 6 6 6 6 6 6 6 6 5 5 5 5 6 6 7
8 8 7 7 6 5 6 6 6 6 6 5 5 6 6 6 5 5 5 6 6 6
8 7 7 6 6 6 6 6 6 7 7 7 6 6 6 6 6 5 6 6 5 4
7 7 7 7 6 7 6 7 6 6 6 6 6 6 6 5 5 5 5 5 5 4
7 7 7 7 7 7 6 6 6 6 6 6 6 6 6 5 5 5 5 4 4 4
7 7 7 7 7 7 6 6 6 6 6 5 5 5 5 5 5 4 4 3 3 3
7 7 7 7 6 7 6 6 6 6 6 5 5 5 5 5 4 4 3 2 2 2
4 4 4 4 4 5 5 5 6 6 6 6 6 6 4 3 3 3 3 2 2 1
3 3 3 3 3 3 3 3 3 2 3 4 5 5 4 3 2 2 2 2 1 1
1 1 2 2 2 2 2 2 2 2 2 2 2 2 3 3 1 2 2 1 1 0
0 0 0 0 0 0 0 0 1 1 0 1 1 1 1 1 2 2 2 1 1 -0
-1 -1 -1 -1 -1 -0 0 0 1 0 -0 -0 -0 0 1 0 0 2 2 1 0 -0
-1 -1 -1 -1 -1 -1 -1 -0 -0 -0 -0 -0 -0 -1 -0 -0 -1 -0 1 -0 -0 -1
Height
825 825 826 827 826 825 823 820 817 815 813 813 813 810 810 808 805 802 800 798 795 793
824 826 825 824 822 821 818 815 813 811 809 808 808 807 805 802 800 798 796 793 791 789
821 823 821 819 817 816 814 812 810 807 805 803 803 802 800 797 795 793 790 788 786 785
818 817 816 815 814 812 810 808 806 803 800 799 797 796 793 791 789 786 784 783 781 780
816 813 812 810 808 806 804 802 801 798 796 794 792 790 787 785 783 780 777 775 773 771
809 808 808 807 805 803 800 797 795 793 790 787 785 783 780 778 776 773 771 768 766 764
808 808 806 803 800 797 794 791 788 785 783 780 778 775 773 771 768 766 764 762 760 759
806 804 800 797 794 791 787 784 781 777 774 772 768 765 763 761 759 757 755 754 752 751
805 802 799 795 790 786 782 777 773 768 764 761 758 755 753 752 752 750 748 746 744 743
805 801 797 792 787 782 778 773 768 762 759 752 747 746 744 743 743 742 740 738 737 735
803 799 794 789 784 779 774 768 763 757 751 746 740 737 735 733 734 732 730 729 728 727
804 798 793 787 782 777 770 764 758 752 745 738 730 728 725 723 723 720 720 720 720 720
802 797 791 785 778 772 766 758 751 744 738 731 723 718 715 712 712 710 710 712 712 712
799 793 787 781 776 768 761 754 747 739 730 722 715 707 704 700 700 701 702 704 704 705
Wind_Speed
6 7 9 11 13 15 15 15 13 12 12 13 13 13 14 15 15 14 14 14 15 15
7 10 12 13 13 16 16 17 16 16 16 16 17 17 16 16 16 16 17 17 17 18
11 14 15 16 18 17 18 19 20 19 18 19 20 19 18 18 17 17 19 19 19 19
17 16 16 17 18 18 19 19 21 21 21 21 21 21 21 21 21 21 21 20 20 19
22 19 20 20 20 19 20 20 21 21 21 22 23 23 23 23 22 22 23 22 21 21
21 22 22 22 22 21 21 21 20 21 22 23 24 25 25 25 24 23 23 22 21 21
21 21 22 23 23 24 24 24 24 23 23 23 24 24 24 24 25 24 24 22 22 22
18 21 23 25 26 27 27 27 27 26 26 26 25 25 24 24 23 23 23 23 23 23
18 19 21 22 23 25 27 28 30 31 31 31 30 29 28 28 26 25 25 25 24 23
21 22 23 25 26 27 28 29 29 30 32 35 35 33 32 32 27 27 26 26 24 23
23 24 25 26 27 28 29 31 31 33 35 34 34 36 37 34 29 28 28 27 25 23
22 24 25 25 26 28 29 31 33 34 34 35 36 36 39 36 31 28 28 25 25 22
22 24 26 26 28 28 29 30 31 34 34 36 38 38 39 34 31 28 24 22 22 21
25 26 26 27 29 30 31 32 33 34 34 34 35 37 38 35 32 26 21 20 18 16
Wind_Direction
284 281 272 290 297 291 285 280 276 270 267 267 273 279 277 280 279 275 270 268 265 266
291 270 276 289 291 286 284 282 279 273 271 268 268 270 271 274 273 270 267 266 265 264
292 265 273 283 285 279 281 280 278 275 271 267 266 268 268 272 272 269 269 268 267 267
276 259 268 273 275 276 280 278 275 274 274 273 270 269 270 271 272 271 271 268 268 271
278 262 264 267 270 273 275 278 277 274 271 270 271 271 269 270 269 270 271 271 269 272
270 263 271 281 284 284 280 276 274 272 271 272 271 269 268 269 270 271 271 269 268 274
290 290 291 291 287 284 281 277 274 271 271 272 275 272 270 268 270 270 269 266 268 268
308 302 302 300 295 291 286 282 280 277 274 273 272 270 269 270 272 270 267 268 269 270
334 327 321 316 311 305 299 293 290 284 276 273 271 270 264 260 269 270 268 269 270 270
335 329 325 320 316 312 309 304 297 290 290 285 277 272 264 259 257 264 263 263 268 271
335 331 327 324 320 316 311 307 306 300 292 285 280 275 272 256 250 258 259 258 261 264
336 332 329 325 324 321 317 314 309 305 301 292 280 276 268 253 247 251 255 255 257 256
329 326 324 324 323 319 317 314 314 313 307 295 287 283 272 253 242 249 251 253 253 252
330 326 323 321 320 320 317 316 313 311 314 310 293 284 277 251 232 241 248 246 246 247